#datetime,building,power
2022-11-22T00:00:00,atd,24.54
2022-11-22T00:01:00,atd,25.74
2022-11-22T00:02:00,atd,23.84
2022-11-22T00:03:00,atd,23.95
2022-11-22T00:04:00,atd,25.73
2022-11-22T00:05:00,atd,19.95
2022-11-22T00:06:00,atd,24.37
2022-11-22T00:07:00,atd,24.05
2022-11-22T00:08:00,atd,18.96
2022-11-22T00:09:00,atd,19.07
2022-11-22T00:10:00,atd,20.77
2022-11-22T00:11:00,atd,23.22
2022-11-22T00:12:00,atd,25.39
2022-11-22T00:13:00,atd,23.00
2022-11-22T00:14:00,atd,20.28
2022-11-22T00:15:00,atd,17.55
2022-11-22T00:16:00,atd,19.08
2022-11-22T00:17:00,atd,18.94
2022-11-22T00:18:00,atd,17.30
2022-11-22T00:19:00,atd,21.04
2022-11-22T00:20:00,atd,19.18
2022-11-22T00:21:00,atd,21.45
2022-11-22T00:22:00,atd,23.31
2022-11-22T00:23:00,atd,26.78
2022-11-22T00:24:00,atd,25.16
2022-11-22T00:25:00,atd,22.39
2022-11-22T00:26:00,atd,20.66
2022-11-22T00:27:00,atd,18.28
2022-11-22T00:28:00,atd,18.38
2022-11-22T00:29:00,atd,19.01
2022-11-22T00:30:00,atd,19.71
2022-11-22T00:31:00,atd,18.98
2022-11-22T00:32:00,atd,22.30
2022-11-22T00:33:00,atd,21.02
2022-11-22T00:34:00,atd,19.37
2022-11-22T00:35:00,atd,16.66
2022-11-22T00:36:00,atd,18.42
2022-11-22T00:37:00,atd,22.74
2022-11-22T00:38:00,atd,20.02
2022-11-22T00:39:00,atd,24.31
2022-11-22T00:40:00,atd,25.73
2022-11-22T00:41:00,atd,20.10
2022-11-22T00:42:00,atd,17.92
2022-11-22T00:43:00,atd,20.59
2022-11-22T00:44:00,atd,21.22
2022-11-22T00:45:00,atd,18.68
2022-11-22T00:46:00,atd,21.23
2022-11-22T00:47:00,atd,19.58
2022-11-22T00:48:00,atd,19.36
2022-11-22T00:49:00,atd,18.84
2022-11-22T00:50:00,atd,18.85
2022-11-22T00:51:00,atd,21.25
2022-11-22T00:52:00,atd,20.66
2022-11-22T00:53:00,atd,23.68
2022-11-22T00:54:00,atd,20.52
2022-11-22T00:55:00,atd,26.85
2022-11-22T00:56:00,atd,27.15
2022-11-22T00:57:00,atd,21.38
2022-11-22T00:58:00,atd,17.28
2022-11-22T00:59:00,atd,19.00
2022-11-22T01:00:00,atd,18.70
2022-11-22T01:01:00,atd,18.08
2022-11-22T01:02:00,atd,21.46
2022-11-22T01:03:00,atd,18.89
2022-11-22T01:04:00,atd,19.26
2022-11-22T01:05:00,atd,23.16
2022-11-22T01:06:00,atd,22.79
2022-11-22T01:07:00,atd,21.38
2022-11-22T01:08:00,atd,22.84
2022-11-22T01:09:00,atd,21.85
2022-11-22T01:10:00,atd,21.14
2022-11-22T01:11:00,atd,22.11
2022-11-22T01:12:00,atd,18.33
2022-11-22T01:13:00,atd,20.13
2022-11-22T01:14:00,atd,20.31
2022-11-22T01:15:00,atd,18.31
2022-11-22T01:16:00,atd,23.88
2022-11-22T01:17:00,atd,32.68
2022-11-22T01:18:00,atd,20.45
2022-11-22T01:19:00,atd,18.17
2022-11-22T01:20:00,atd,18.11
2022-11-22T01:21:00,atd,16.73
2022-11-22T01:22:00,atd,19.49
2022-11-22T01:23:00,atd,28.20
2022-11-22T01:24:00,atd,27.18
2022-11-22T01:25:00,atd,28.38
2022-11-22T01:26:00,atd,26.78
2022-11-22T01:27:00,atd,23.14
2022-11-22T01:28:00,atd,19.72
2022-11-22T01:29:00,atd,24.30
2022-11-22T01:30:00,atd,23.64
2022-11-22T01:31:00,atd,20.87
2022-11-22T01:32:00,atd,20.60
2022-11-22T01:33:00,atd,21.83
2022-11-22T01:34:00,atd,22.68
2022-11-22T01:35:00,atd,21.91
2022-11-22T01:36:00,atd,22.58
2022-11-22T01:37:00,atd,31.72
2022-11-22T01:38:00,atd,24.70
2022-11-22T01:39:00,atd,23.28
2022-11-22T01:40:00,atd,26.29
2022-11-22T01:41:00,atd,23.42
2022-11-22T01:42:00,atd,28.81
2022-11-22T01:43:00,atd,20.60
2022-11-22T01:44:00,atd,20.81
2022-11-22T01:45:00,atd,21.71
2022-11-22T01:46:00,atd,21.41
2022-11-22T01:47:00,atd,20.81
2022-11-22T01:48:00,atd,20.70
2022-11-22T01:49:00,atd,18.85
2022-11-22T01:50:00,atd,17.69
2022-11-22T01:51:00,atd,20.07
2022-11-22T01:52:00,atd,19.08
2022-11-22T01:53:00,atd,28.00
2022-11-22T01:54:00,atd,21.25
2022-11-22T01:55:00,atd,21.60
2022-11-22T01:56:00,atd,21.89
2022-11-22T01:57:00,atd,22.31
2022-11-22T01:58:00,atd,18.49
2022-11-22T01:59:00,atd,19.32
2022-11-22T02:00:00,atd,20.12
2022-11-22T02:01:00,atd,19.45
2022-11-22T02:02:00,atd,22.37
2022-11-22T02:03:00,atd,23.50
2022-11-22T02:04:00,atd,20.75
2022-11-22T02:05:00,atd,21.97
2022-11-22T02:06:00,atd,17.04
2022-11-22T02:07:00,atd,18.27
2022-11-22T02:08:00,atd,19.39
2022-11-22T02:09:00,atd,17.24
2022-11-22T02:10:00,atd,24.56
2022-11-22T02:11:00,atd,25.44
2022-11-22T02:12:00,atd,23.15
2022-11-22T02:13:00,atd,23.16
2022-11-22T02:14:00,atd,21.54
2022-11-22T02:15:00,atd,19.82
2022-11-22T02:16:00,atd,27.69
2022-11-22T02:17:00,atd,28.34
2022-11-22T02:18:00,atd,37.23
2022-11-22T02:19:00,atd,30.69
2022-11-22T02:20:00,atd,20.08
2022-11-22T02:21:00,atd,24.49
2022-11-22T02:22:00,atd,23.96
2022-11-22T02:23:00,atd,24.55
2022-11-22T02:24:00,atd,21.77
2022-11-22T02:25:00,atd,23.54
2022-11-22T02:26:00,atd,25.94
2022-11-22T02:27:00,atd,21.48
2022-11-22T02:28:00,atd,27.67
2022-11-22T02:29:00,atd,24.47
2022-11-22T02:30:00,atd,17.05
2022-11-22T02:31:00,atd,20.16
2022-11-22T02:32:00,atd,19.88
2022-11-22T02:33:00,atd,18.42
2022-11-22T02:34:00,atd,20.29
2022-11-22T02:35:00,atd,18.77
2022-11-22T02:36:00,atd,19.56
2022-11-22T02:37:00,atd,23.87
2022-11-22T02:38:00,atd,19.04
2022-11-22T02:39:00,atd,24.74
2022-11-22T02:40:00,atd,23.26
2022-11-22T02:41:00,atd,25.47
2022-11-22T02:42:00,atd,25.26
2022-11-22T02:43:00,atd,28.15
2022-11-22T02:44:00,atd,27.47
2022-11-22T02:45:00,atd,24.83
2022-11-22T02:46:00,atd,24.66
2022-11-22T02:47:00,atd,24.01
2022-11-22T02:48:00,atd,20.56
2022-11-22T02:49:00,atd,17.84
2022-11-22T02:50:00,atd,18.78
2022-11-22T02:51:00,atd,18.95
2022-11-22T02:52:00,atd,17.90
2022-11-22T02:53:00,atd,21.88
2022-11-22T02:54:00,atd,22.02
2022-11-22T02:55:00,atd,19.03
2022-11-22T02:56:00,atd,35.37
2022-11-22T02:57:00,atd,37.05
2022-11-22T02:58:00,atd,34.18
2022-11-22T02:59:00,atd,34.35
2022-11-22T03:00:00,atd,34.79
2022-11-22T03:01:00,atd,23.39
2022-11-22T03:02:00,atd,22.78
2022-11-22T03:03:00,atd,23.53
2022-11-22T03:04:00,atd,21.91
2022-11-22T03:05:00,atd,25.36
2022-11-22T03:06:00,atd,25.86
2022-11-22T03:07:00,atd,29.42
2022-11-22T03:08:00,atd,30.00
2022-11-22T03:09:00,atd,24.56
2022-11-22T03:10:00,atd,24.83
2022-11-22T03:11:00,atd,19.07
2022-11-22T03:12:00,atd,21.81
2022-11-22T03:13:00,atd,20.07
2022-11-22T03:14:00,atd,25.32
2022-11-22T03:15:00,atd,20.14
2022-11-22T03:16:00,atd,19.56
2022-11-22T03:17:00,atd,21.93
2022-11-22T03:18:00,atd,19.80
2022-11-22T03:19:00,atd,19.89
2022-11-22T03:20:00,atd,19.10
2022-11-22T03:21:00,atd,22.37
2022-11-22T03:22:00,atd,18.51
2022-11-22T03:23:00,atd,20.39
2022-11-22T03:24:00,atd,18.20
2022-11-22T03:25:00,atd,22.65
2022-11-22T03:26:00,atd,23.23
2022-11-22T03:27:00,atd,25.29
2022-11-22T03:28:00,atd,23.80
2022-11-22T03:29:00,atd,24.31
2022-11-22T03:30:00,atd,24.20
2022-11-22T03:31:00,atd,24.44
2022-11-22T03:32:00,atd,20.73
2022-11-22T03:33:00,atd,18.53
2022-11-22T03:34:00,atd,22.00
2022-11-22T03:35:00,atd,22.25
2022-11-22T03:36:00,atd,22.65
2022-11-22T03:37:00,atd,20.75
2022-11-22T03:38:00,atd,20.40
2022-11-22T03:39:00,atd,19.14
2022-11-22T03:40:00,atd,21.57
2022-11-22T03:41:00,atd,31.59
2022-11-22T03:42:00,atd,20.54
2022-11-22T03:43:00,atd,24.99
2022-11-22T03:44:00,atd,24.04
2022-11-22T03:45:00,atd,22.79
2022-11-22T03:46:00,atd,22.13
2022-11-22T03:47:00,atd,21.37
2022-11-22T03:48:00,atd,18.65
2022-11-22T03:49:00,atd,21.19
2022-11-22T03:50:00,atd,21.41
2022-11-22T03:51:00,atd,20.84
2022-11-22T03:52:00,atd,21.24
2022-11-22T03:53:00,atd,19.01
2022-11-22T03:54:00,atd,19.38
2022-11-22T03:55:00,atd,19.10
2022-11-22T03:56:00,atd,18.98
2022-11-22T03:57:00,atd,18.37
2022-11-22T03:58:00,atd,18.17
2022-11-22T03:59:00,atd,19.75
2022-11-22T04:00:00,atd,22.47
2022-11-22T04:01:00,atd,22.34
2022-11-22T04:02:00,atd,23.46
2022-11-22T04:03:00,atd,24.33
2022-11-22T04:04:00,atd,17.18
2022-11-22T04:05:00,atd,20.70
2022-11-22T04:06:00,atd,19.53
2022-11-22T04:07:00,atd,18.57
2022-11-22T04:08:00,atd,16.33
2022-11-22T04:09:00,atd,16.16
2022-11-22T04:10:00,atd,20.58
2022-11-22T04:11:00,atd,16.00
2022-11-22T04:12:00,atd,20.16
2022-11-22T04:13:00,atd,17.63
2022-11-22T04:14:00,atd,23.65
2022-11-22T04:15:00,atd,28.75
2022-11-22T04:16:00,atd,26.57
2022-11-22T04:17:00,atd,24.00
2022-11-22T04:18:00,atd,23.31
2022-11-22T04:19:00,atd,19.68
2022-11-22T04:20:00,atd,18.95
2022-11-22T04:21:00,atd,21.78
2022-11-22T04:22:00,atd,19.10
2022-11-22T04:23:00,atd,23.09
2022-11-22T04:24:00,atd,19.79
2022-11-22T04:25:00,atd,18.52
2022-11-22T04:26:00,atd,19.20
2022-11-22T04:27:00,atd,19.80
2022-11-22T04:28:00,atd,18.40
2022-11-22T04:29:00,atd,19.26
2022-11-22T04:30:00,atd,20.09
2022-11-22T04:31:00,atd,23.29
2022-11-22T04:32:00,atd,26.17
2022-11-22T04:33:00,atd,21.11
2022-11-22T04:34:00,atd,23.07
2022-11-22T04:35:00,atd,22.32
2022-11-22T04:36:00,atd,18.60
2022-11-22T04:37:00,atd,20.46
2022-11-22T04:38:00,atd,16.96
2022-11-22T04:39:00,atd,22.33
2022-11-22T04:40:00,atd,20.04
2022-11-22T04:41:00,atd,25.10
2022-11-22T04:42:00,atd,21.10
2022-11-22T04:43:00,atd,33.57
2022-11-22T04:44:00,atd,20.44
2022-11-22T04:45:00,atd,20.71
2022-11-22T04:46:00,atd,20.24
2022-11-22T04:47:00,atd,22.97
2022-11-22T04:48:00,atd,19.16
2022-11-22T04:49:00,atd,23.54
2022-11-22T04:50:00,atd,24.60
2022-11-22T04:51:00,atd,19.30
2022-11-22T04:52:00,atd,21.05
2022-11-22T04:53:00,atd,18.70
2022-11-22T04:54:00,atd,22.23
2022-11-22T04:55:00,atd,20.32
2022-11-22T04:56:00,atd,21.03
2022-11-22T04:57:00,atd,18.55
2022-11-22T04:58:00,atd,19.19
2022-11-22T04:59:00,atd,20.68
2022-11-22T05:00:00,atd,21.70
2022-11-22T05:01:00,atd,23.16
2022-11-22T05:02:00,atd,23.47
2022-11-22T05:03:00,atd,37.37
2022-11-22T05:04:00,atd,23.36
2022-11-22T05:05:00,atd,21.68
2022-11-22T05:06:00,atd,22.32
2022-11-22T05:07:00,atd,20.77
2022-11-22T05:08:00,atd,20.33
2022-11-22T05:09:00,atd,24.27
2022-11-22T05:10:00,atd,20.53
2022-11-22T05:11:00,atd,22.23
2022-11-22T05:12:00,atd,24.13
2022-11-22T05:13:00,atd,22.27
2022-11-22T05:14:00,atd,22.73
2022-11-22T05:15:00,atd,23.45
2022-11-22T05:16:00,atd,23.10
2022-11-22T05:17:00,atd,20.89
2022-11-22T05:18:00,atd,25.06
2022-11-22T05:19:00,atd,27.71
2022-11-22T05:20:00,atd,24.23
2022-11-22T05:21:00,atd,27.49
2022-11-22T05:22:00,atd,22.39
2022-11-22T05:23:00,atd,19.32
2022-11-22T05:24:00,atd,29.72
2022-11-22T05:25:00,atd,20.75
2022-11-22T05:26:00,atd,19.67
2022-11-22T05:27:00,atd,23.40
2022-11-22T05:28:00,atd,24.67
2022-11-22T05:29:00,atd,31.25
2022-11-22T05:30:00,atd,29.42
2022-11-22T05:31:00,atd,29.17
2022-11-22T05:32:00,atd,31.56
2022-11-22T05:33:00,atd,20.12
2022-11-22T05:34:00,atd,24.40
2022-11-22T05:35:00,atd,23.85
2022-11-22T05:36:00,atd,25.57
2022-11-22T05:37:00,atd,23.04
2022-11-22T05:38:00,atd,24.81
2022-11-22T05:39:00,atd,22.38
2022-11-22T05:40:00,atd,23.47
2022-11-22T05:41:00,atd,23.71
2022-11-22T05:42:00,atd,21.10
2022-11-22T05:43:00,atd,19.51
2022-11-22T05:44:00,atd,22.75
2022-11-22T05:45:00,atd,32.20
2022-11-22T05:46:00,atd,20.37
2022-11-22T05:47:00,atd,21.61
2022-11-22T05:48:00,atd,21.92
2022-11-22T05:49:00,atd,17.53
2022-11-22T05:50:00,atd,27.91
2022-11-22T05:51:00,atd,32.64
2022-11-22T05:52:00,atd,29.76
2022-11-22T05:53:00,atd,25.52
2022-11-22T05:54:00,atd,21.32
2022-11-22T05:55:00,atd,22.75
2022-11-22T05:56:00,atd,23.34
2022-11-22T05:57:00,atd,23.84
2022-11-22T05:58:00,atd,24.82
2022-11-22T05:59:00,atd,25.19
2022-11-22T06:00:00,atd,22.94
2022-11-22T06:01:00,atd,27.42
2022-11-22T06:02:00,atd,22.66
2022-11-22T06:03:00,atd,21.96
2022-11-22T06:04:00,atd,23.22
2022-11-22T06:05:00,atd,23.25
2022-11-22T06:06:00,atd,27.29
2022-11-22T06:07:00,atd,27.60
2022-11-22T06:08:00,atd,27.47
2022-11-22T06:09:00,atd,20.32
2022-11-22T06:10:00,atd,19.81
2022-11-22T06:11:00,atd,22.87
2022-11-22T06:12:00,atd,21.88
2022-11-22T06:13:00,atd,20.67
2022-11-22T06:14:00,atd,23.28
2022-11-22T06:15:00,atd,24.36
2022-11-22T06:16:00,atd,19.98
2022-11-22T06:17:00,atd,22.92
2022-11-22T06:18:00,atd,18.36
2022-11-22T06:19:00,atd,19.92
2022-11-22T06:20:00,atd,18.90
2022-11-22T06:21:00,atd,21.47
2022-11-22T06:22:00,atd,23.42
2022-11-22T06:23:00,atd,23.01
2022-11-22T06:24:00,atd,26.81
2022-11-22T06:25:00,atd,26.41
2022-11-22T06:26:00,atd,21.97
2022-11-22T06:27:00,atd,20.62
2022-11-22T06:28:00,atd,19.09
2022-11-22T06:29:00,atd,18.03
2022-11-22T06:30:00,atd,16.56
2022-11-22T06:31:00,atd,29.05
2022-11-22T06:32:00,atd,31.48
2022-11-22T06:33:00,atd,33.72
2022-11-22T06:34:00,atd,33.16
2022-11-22T06:35:00,atd,21.31
2022-11-22T06:36:00,atd,20.26
2022-11-22T06:37:00,atd,23.56
2022-11-22T06:38:00,atd,20.86
2022-11-22T06:39:00,atd,21.34
2022-11-22T06:40:00,atd,18.77
2022-11-22T06:41:00,atd,20.62
2022-11-22T06:42:00,atd,18.67
2022-11-22T06:43:00,atd,19.31
2022-11-22T06:44:00,atd,23.37
2022-11-22T06:45:00,atd,19.72
2022-11-22T06:46:00,atd,21.31
2022-11-22T06:47:00,atd,29.73
2022-11-22T06:48:00,atd,21.46
2022-11-22T06:49:00,atd,19.33
2022-11-22T06:50:00,atd,20.10
2022-11-22T06:51:00,atd,17.92
2022-11-22T06:52:00,atd,20.49
2022-11-22T06:53:00,atd,19.28
2022-11-22T06:54:00,atd,22.73
2022-11-22T06:55:00,atd,23.32
2022-11-22T06:56:00,atd,25.46
2022-11-22T06:57:00,atd,19.46
2022-11-22T06:58:00,atd,22.89
2022-11-22T06:59:00,atd,19.55
2022-11-22T07:00:00,atd,17.24
2022-11-22T07:01:00,atd,22.23
2022-11-22T07:02:00,atd,25.20
2022-11-22T07:03:00,atd,36.86
2022-11-22T07:04:00,atd,31.87
2022-11-22T07:05:00,atd,36.17
2022-11-22T07:06:00,atd,39.90
2022-11-22T07:07:00,atd,38.33
2022-11-22T07:08:00,atd,31.57
2022-11-22T07:09:00,atd,32.82
2022-11-22T07:10:00,atd,33.24
2022-11-22T07:11:00,atd,33.16
2022-11-22T07:12:00,atd,34.17
2022-11-22T07:13:00,atd,33.42
2022-11-22T07:14:00,atd,32.26
2022-11-22T07:15:00,atd,31.56
2022-11-22T07:16:00,atd,34.06
2022-11-22T07:17:00,atd,30.91
2022-11-22T07:18:00,atd,33.31
2022-11-22T07:19:00,atd,32.42
2022-11-22T07:20:00,atd,32.50
2022-11-22T07:21:00,atd,30.50
2022-11-22T07:22:00,atd,36.41
2022-11-22T07:23:00,atd,37.66
2022-11-22T07:24:00,atd,39.41
2022-11-22T07:25:00,atd,37.91
2022-11-22T07:26:00,atd,36.62
2022-11-22T07:27:00,atd,35.69
2022-11-22T07:28:00,atd,36.30
2022-11-22T07:29:00,atd,37.09
2022-11-22T07:30:00,atd,40.40
2022-11-22T07:31:00,atd,40.45
2022-11-22T07:32:00,atd,38.94
2022-11-22T07:33:00,atd,39.55
2022-11-22T07:34:00,atd,39.41
2022-11-22T07:35:00,atd,39.75
2022-11-22T07:36:00,atd,41.23
2022-11-22T07:37:00,atd,39.57
2022-11-22T07:38:00,atd,40.20
2022-11-22T07:39:00,atd,43.74
2022-11-22T07:40:00,atd,47.03
2022-11-22T07:41:00,atd,44.85
2022-11-22T07:42:00,atd,37.47
2022-11-22T07:43:00,atd,36.13
2022-11-22T07:44:00,atd,39.44
2022-11-22T07:45:00,atd,33.15
2022-11-22T07:46:00,atd,32.16
2022-11-22T07:47:00,atd,37.73
2022-11-22T07:48:00,atd,37.06
2022-11-22T07:49:00,atd,36.27
2022-11-22T07:50:00,atd,33.41
2022-11-22T07:51:00,atd,37.01
2022-11-22T07:52:00,atd,35.65
2022-11-22T07:53:00,atd,35.81
2022-11-22T07:54:00,atd,36.38
2022-11-22T07:55:00,atd,41.76
2022-11-22T07:56:00,atd,49.61
2022-11-22T07:57:00,atd,40.69
2022-11-22T07:58:00,atd,43.46
2022-11-22T07:59:00,atd,39.54
2022-11-22T08:00:00,atd,35.54
2022-11-22T08:01:00,atd,34.32
2022-11-22T08:02:00,atd,36.23
2022-11-22T08:03:00,atd,38.99
2022-11-22T08:04:00,atd,36.61
2022-11-22T08:05:00,atd,36.56
2022-11-22T08:06:00,atd,39.36
2022-11-22T08:07:00,atd,35.61
2022-11-22T08:08:00,atd,38.58
2022-11-22T08:09:00,atd,36.20
2022-11-22T08:10:00,atd,36.84
2022-11-22T08:11:00,atd,38.00
2022-11-22T08:12:00,atd,41.52
2022-11-22T08:13:00,atd,43.48
2022-11-22T08:14:00,atd,43.76
2022-11-22T08:15:00,atd,42.10
2022-11-22T08:16:00,atd,44.93
2022-11-22T08:17:00,atd,41.78
2022-11-22T08:18:00,atd,39.48
2022-11-22T08:19:00,atd,47.08
2022-11-22T08:20:00,atd,45.39
2022-11-22T08:21:00,atd,42.24
2022-11-22T08:22:00,atd,46.50
2022-11-22T08:23:00,atd,39.93
2022-11-22T08:24:00,atd,41.93
2022-11-22T08:25:00,atd,40.29
2022-11-22T08:26:00,atd,34.38
2022-11-22T08:27:00,atd,38.50
2022-11-22T08:28:00,atd,39.02
2022-11-22T08:29:00,atd,40.47
2022-11-22T08:30:00,atd,42.01
2022-11-22T08:31:00,atd,41.61
2022-11-22T08:32:00,atd,39.22
2022-11-22T08:33:00,atd,35.72
2022-11-22T08:34:00,atd,33.95
2022-11-22T08:35:00,atd,36.25
2022-11-22T08:36:00,atd,44.48
2022-11-22T08:37:00,atd,45.59
2022-11-22T08:38:00,atd,45.97
2022-11-22T08:39:00,atd,42.92
2022-11-22T08:40:00,atd,34.86
2022-11-22T08:41:00,atd,32.92
2022-11-22T08:42:00,atd,33.20
2022-11-22T08:43:00,atd,36.64
2022-11-22T08:44:00,atd,36.38
2022-11-22T08:45:00,atd,36.10
2022-11-22T08:46:00,atd,39.82
2022-11-22T08:47:00,atd,36.96
2022-11-22T08:48:00,atd,37.02
2022-11-22T08:49:00,atd,39.44
2022-11-22T08:50:00,atd,35.99
2022-11-22T08:51:00,atd,33.03
2022-11-22T08:52:00,atd,30.73
2022-11-22T08:53:00,atd,28.88
2022-11-22T08:54:00,atd,31.88
2022-11-22T08:55:00,atd,31.30
2022-11-22T08:56:00,atd,30.53
2022-11-22T08:57:00,atd,34.59
2022-11-22T08:58:00,atd,31.91
2022-11-22T08:59:00,atd,35.14
2022-11-22T09:00:00,atd,33.82
2022-11-22T09:01:00,atd,32.81
2022-11-22T09:02:00,atd,33.38
2022-11-22T09:03:00,atd,32.75
2022-11-22T09:04:00,atd,31.52
2022-11-22T09:05:00,atd,32.55
2022-11-22T09:06:00,atd,34.82
2022-11-22T09:07:00,atd,30.23
2022-11-22T09:08:00,atd,30.18
2022-11-22T09:09:00,atd,31.02
2022-11-22T09:10:00,atd,31.12
2022-11-22T09:11:00,atd,30.59
2022-11-22T09:12:00,atd,45.64
2022-11-22T09:13:00,atd,29.03
2022-11-22T09:14:00,atd,32.25
2022-11-22T09:15:00,atd,35.87
2022-11-22T09:16:00,atd,35.02
2022-11-22T09:17:00,atd,39.21
2022-11-22T09:18:00,atd,33.16
2022-11-22T09:19:00,atd,31.52
2022-11-22T09:20:00,atd,33.04
2022-11-22T09:21:00,atd,33.08
2022-11-22T09:22:00,atd,34.68
2022-11-22T09:23:00,atd,34.75
2022-11-22T09:24:00,atd,35.91
2022-11-22T09:25:00,atd,32.06
2022-11-22T09:26:00,atd,28.02
2022-11-22T09:27:00,atd,30.01
2022-11-22T09:28:00,atd,31.56
2022-11-22T09:29:00,atd,30.75
2022-11-22T09:30:00,atd,43.61
2022-11-22T09:31:00,atd,33.61
2022-11-22T09:32:00,atd,30.48
2022-11-22T09:33:00,atd,30.92
2022-11-22T09:34:00,atd,33.14
2022-11-22T09:35:00,atd,27.45
2022-11-22T09:36:00,atd,29.73
2022-11-22T09:37:00,atd,29.33
2022-11-22T09:38:00,atd,30.90
2022-11-22T09:39:00,atd,29.55
2022-11-22T09:40:00,atd,31.54
2022-11-22T09:41:00,atd,31.55
2022-11-22T09:42:00,atd,29.68
2022-11-22T09:43:00,atd,30.28
2022-11-22T09:44:00,atd,31.51
2022-11-22T09:45:00,atd,31.39
2022-11-22T09:46:00,atd,32.76
2022-11-22T09:47:00,atd,43.07
2022-11-22T09:48:00,atd,29.90
2022-11-22T09:49:00,atd,29.85
2022-11-22T09:50:00,atd,29.47
2022-11-22T09:51:00,atd,29.24
2022-11-22T09:52:00,atd,28.72
2022-11-22T09:53:00,atd,42.65
2022-11-22T09:54:00,atd,40.54
2022-11-22T09:55:00,atd,42.01
2022-11-22T09:56:00,atd,42.04
2022-11-22T09:57:00,atd,29.85
2022-11-22T09:58:00,atd,33.00
2022-11-22T09:59:00,atd,31.28
2022-11-22T10:00:00,atd,29.60
2022-11-22T10:01:00,atd,30.80
2022-11-22T10:02:00,atd,32.76
2022-11-22T10:03:00,atd,33.01
2022-11-22T10:04:00,atd,35.08
2022-11-22T10:05:00,atd,31.63
2022-11-22T10:06:00,atd,29.45
2022-11-22T10:07:00,atd,26.17
2022-11-22T10:08:00,atd,25.90
2022-11-22T10:09:00,atd,27.66
2022-11-22T10:10:00,atd,25.38
2022-11-22T10:11:00,atd,26.92
2022-11-22T10:12:00,atd,28.11
2022-11-22T10:13:00,atd,30.68
2022-11-22T10:14:00,atd,28.80
2022-11-22T10:15:00,atd,29.39
2022-11-22T10:16:00,atd,30.63
2022-11-22T10:17:00,atd,32.37
2022-11-22T10:18:00,atd,30.64
2022-11-22T10:19:00,atd,28.62
2022-11-22T10:20:00,atd,29.16
2022-11-22T10:21:00,atd,32.37
2022-11-22T10:22:00,atd,43.91
2022-11-22T10:23:00,atd,28.74
2022-11-22T10:24:00,atd,26.32
2022-11-22T10:25:00,atd,27.53
2022-11-22T10:26:00,atd,28.76
2022-11-22T10:27:00,atd,28.44
2022-11-22T10:28:00,atd,27.10
2022-11-22T10:29:00,atd,28.95
2022-11-22T10:30:00,atd,29.16
2022-11-22T10:31:00,atd,27.32
2022-11-22T10:32:00,atd,29.12
2022-11-22T10:33:00,atd,32.86
2022-11-22T10:34:00,atd,31.32
2022-11-22T10:35:00,atd,31.66
2022-11-22T10:36:00,atd,28.42
2022-11-22T10:37:00,atd,28.71
2022-11-22T10:38:00,atd,26.06
2022-11-22T10:39:00,atd,39.68
2022-11-22T10:40:00,atd,31.34
2022-11-22T10:41:00,atd,28.93
2022-11-22T10:42:00,atd,26.98
2022-11-22T10:43:00,atd,28.53
2022-11-22T10:44:00,atd,26.19
2022-11-22T10:45:00,atd,27.18
2022-11-22T10:46:00,atd,28.49
2022-11-22T10:47:00,atd,26.64
2022-11-22T10:48:00,atd,27.87
2022-11-22T10:49:00,atd,33.92
2022-11-22T10:50:00,atd,30.30
2022-11-22T10:51:00,atd,29.85
2022-11-22T10:52:00,atd,31.15
2022-11-22T10:53:00,atd,27.66
2022-11-22T10:54:00,atd,26.96
2022-11-22T10:55:00,atd,26.17
2022-11-22T10:56:00,atd,28.62
2022-11-22T10:57:00,atd,28.58
2022-11-22T10:58:00,atd,25.88
2022-11-22T10:59:00,atd,25.95
2022-11-22T11:00:00,atd,26.03
2022-11-22T11:01:00,atd,25.14
2022-11-22T11:02:00,atd,26.52
2022-11-22T11:03:00,atd,23.77
2022-11-22T11:04:00,atd,28.03
2022-11-22T11:05:00,atd,32.63
2022-11-22T11:06:00,atd,32.36
2022-11-22T11:07:00,atd,35.26
2022-11-22T11:08:00,atd,32.26
2022-11-22T11:09:00,atd,30.67
2022-11-22T11:10:00,atd,34.24
2022-11-22T11:11:00,atd,34.18
2022-11-22T11:12:00,atd,33.13
2022-11-22T11:13:00,atd,38.70
2022-11-22T11:14:00,atd,32.22
2022-11-22T11:15:00,atd,31.12
2022-11-22T11:16:00,atd,28.52
2022-11-22T11:17:00,atd,27.35
2022-11-22T11:18:00,atd,27.60
2022-11-22T11:19:00,atd,29.27
2022-11-22T11:20:00,atd,28.60
2022-11-22T11:21:00,atd,30.05
2022-11-22T11:22:00,atd,31.01
2022-11-22T11:23:00,atd,32.64
2022-11-22T11:24:00,atd,32.89
2022-11-22T11:25:00,atd,27.15
2022-11-22T11:26:00,atd,26.13
2022-11-22T11:27:00,atd,28.24
2022-11-22T11:28:00,atd,27.22
2022-11-22T11:29:00,atd,26.20
2022-11-22T11:30:00,atd,28.02
2022-11-22T11:31:00,atd,38.68
2022-11-22T11:32:00,atd,28.21
2022-11-22T11:33:00,atd,27.82
2022-11-22T11:34:00,atd,28.22
2022-11-22T11:35:00,atd,27.08
2022-11-22T11:36:00,atd,30.92
2022-11-22T11:37:00,atd,38.29
2022-11-22T11:38:00,atd,38.24
2022-11-22T11:39:00,atd,37.99
2022-11-22T11:40:00,atd,37.96
2022-11-22T11:41:00,atd,28.98
2022-11-22T11:42:00,atd,29.07
2022-11-22T11:43:00,atd,29.59
2022-11-22T11:44:00,atd,28.67
2022-11-22T11:45:00,atd,38.64
2022-11-22T11:46:00,atd,39.67
2022-11-22T11:47:00,atd,35.92
2022-11-22T11:48:00,atd,37.33
2022-11-22T11:49:00,atd,31.72
2022-11-22T11:50:00,atd,27.40
2022-11-22T11:51:00,atd,26.62
2022-11-22T11:52:00,atd,27.39
2022-11-22T11:53:00,atd,27.56
2022-11-22T11:54:00,atd,27.56
2022-11-22T11:55:00,atd,27.86
2022-11-22T11:56:00,atd,24.26
2022-11-22T11:57:00,atd,26.96
2022-11-22T11:58:00,atd,27.14
2022-11-22T11:59:00,atd,27.98
2022-11-22T12:00:00,atd,27.26
2022-11-22T12:01:00,atd,30.76
2022-11-22T12:02:00,atd,31.32
2022-11-22T12:03:00,atd,28.87
2022-11-22T12:04:00,atd,30.00
2022-11-22T12:05:00,atd,43.04
2022-11-22T12:06:00,atd,32.05
2022-11-22T12:07:00,atd,29.23
2022-11-22T12:08:00,atd,29.58
2022-11-22T12:09:00,atd,28.17
2022-11-22T12:10:00,atd,27.45
2022-11-22T12:11:00,atd,29.14
2022-11-22T12:12:00,atd,30.77
2022-11-22T12:13:00,atd,26.86
2022-11-22T12:14:00,atd,27.93
2022-11-22T12:15:00,atd,32.71
2022-11-22T12:16:00,atd,31.08
2022-11-22T12:17:00,atd,28.54
2022-11-22T12:18:00,atd,28.42
2022-11-22T12:19:00,atd,26.04
2022-11-22T12:20:00,atd,27.30
2022-11-22T12:21:00,atd,27.09
2022-11-22T12:22:00,atd,24.18
2022-11-22T12:23:00,atd,24.74
2022-11-22T12:24:00,atd,27.79
2022-11-22T12:25:00,atd,27.33
2022-11-22T12:26:00,atd,29.43
2022-11-22T12:27:00,atd,30.64
2022-11-22T12:28:00,atd,28.82
2022-11-22T12:29:00,atd,31.84
2022-11-22T12:30:00,atd,27.10
2022-11-22T12:31:00,atd,25.77
2022-11-22T12:32:00,atd,23.57
2022-11-22T12:33:00,atd,28.08
2022-11-22T12:34:00,atd,26.05
2022-11-22T12:35:00,atd,28.67
2022-11-22T12:36:00,atd,25.27
2022-11-22T12:37:00,atd,25.46
2022-11-22T12:38:00,atd,24.60
2022-11-22T12:39:00,atd,26.03
2022-11-22T12:40:00,atd,31.88
2022-11-22T12:41:00,atd,30.88
2022-11-22T12:42:00,atd,31.10
2022-11-22T12:43:00,atd,29.08
2022-11-22T12:44:00,atd,24.96
2022-11-22T12:45:00,atd,25.57
2022-11-22T12:46:00,atd,24.16
2022-11-22T12:47:00,atd,25.75
2022-11-22T12:48:00,atd,24.18
2022-11-22T12:49:00,atd,23.39
2022-11-22T12:50:00,atd,23.50
2022-11-22T12:51:00,atd,23.78
2022-11-22T12:52:00,atd,23.38
2022-11-22T12:53:00,atd,24.10
2022-11-22T12:54:00,atd,25.82
2022-11-22T12:55:00,atd,25.20
2022-11-22T12:56:00,atd,30.71
2022-11-22T12:57:00,atd,38.76
2022-11-22T12:58:00,atd,24.99
2022-11-22T12:59:00,atd,27.22
2022-11-22T13:00:00,atd,24.94
2022-11-22T13:01:00,atd,42.63
2022-11-22T13:02:00,atd,25.77
2022-11-22T13:03:00,atd,24.39
2022-11-22T13:04:00,atd,23.97
2022-11-22T13:05:00,atd,24.45
2022-11-22T13:06:00,atd,25.28
2022-11-22T13:07:00,atd,25.96
2022-11-22T13:08:00,atd,25.31
2022-11-22T13:09:00,atd,25.65
2022-11-22T13:10:00,atd,26.48
2022-11-22T13:11:00,atd,28.46
2022-11-22T13:12:00,atd,28.55
2022-11-22T13:13:00,atd,25.43
2022-11-22T13:14:00,atd,36.38
2022-11-22T13:15:00,atd,24.87
2022-11-22T13:16:00,atd,20.20
2022-11-22T13:17:00,atd,25.62
2022-11-22T13:18:00,atd,28.73